Simultaneous Nadir Overpasses (SNOs) Predictions

Prediction of SNOs between METOP-A and NPP Satellite Orbit:

Table of predicted SNOs for the next 14.0 days since TLE Epoch: 3/12/2016
Index Date (METOP-A) Time (METOP-A) Lat,Lon (METOP-A) SZA (METOP-A ) Date (NPP) Time (NPP) Lat,Lon (NPP) SZA (NPP ) Distance(km) Time Diff (sec)
1 03/12/2016 05:42:18 -72.77, -93.88 103.89 03/12/2016 05:43:31 -72.79, -93.77 103.88 4.81 73
2 03/12/2016 06:33:02 72.53, 72.98 75.90 03/12/2016 06:34:13 72.60, 73.94 75.89 33.00 71
3 03/12/2016 07:23:45 -72.49,-119.78 104.15 03/12/2016 07:24:56 -72.55,-118.64 104.18 38.39 71
4 03/12/2016 08:14:29 72.26, 47.09 75.64 03/12/2016 08:15:37 72.30, 49.16 75.54 70.24 68
5 03/12/2016 09:05:12 -72.22,-145.66 104.42 03/12/2016 09:06:20 -72.25,-143.43 104.53 75.69 68




NCC Satellite Simultaneous Nadir Overpasses (SNOs) Prediction Service
